Location: D�derode
(51.8092°N, 10.1065°E)
Time: 14:49:19
(UTC+00:00)

X-37B - Visible Passes

Search period start: 12 June 2021 00:00
Search period end: 22 June 2021 00:00
Orbit: 386 x 389 km, 45.0° (Epoch: 10 June)

Date Brightness Start Highest point End Pass type
(mag) Time Alt. Az. Time Alt. Az. Time Alt. Az.
12 Jun 3.0 01:48:53 10° SSE 01:49:41 11° SSE 01:50:28 10° SE visible
14 Jun 2.6 01:28:10 13° S 01:29:17 15° SSE 01:31:10 10° ESE visible
15 Jun 2.1 02:04:34 10° SW 02:07:07 22° S 02:09:38 10° ESE visible
16 Jun 2.2 01:08:13 17° S 01:08:57 19° SSE 01:11:16 10° ESE visible
17 Jun 2.9 00:12:09 12° SE 00:12:09 12° SE 00:12:43 10° ESE visible
17 Jun 1.9 01:44:24 11° SW 01:46:49 24° S 01:49:27 10° ESE visible
18 Jun 1.9 00:48:20 22° S 00:48:38 22° S 00:51:11 10° ESE visible
18 Jun 2.9 23:52:21 12° SE 23:52:21 12° SE 23:52:48 10° ESE visible
19 Jun 1.8 01:24:37 14° SW 01:26:32 23° S 01:29:09 10° SE visible
20 Jun 1.9 00:28:47 23° SSE 00:28:47 23° SSE 00:30:59 10° ESE visible
20 Jun 2.2 02:02:09 10° WSW 02:04:24 18° SSW 02:06:38 10° SSE visible
21 Jun 1.9 01:05:33 20° SSW 01:06:14 21° S 01:08:44 10° SE visible
